FW7800 Weather Reports


time (UTC)temp
F
wind
direction
speed
knots
gust
knots
rain 1hr
in
rain 24hr
in
rain mn
in
humidity
%
barometer
mb
20260507155506 74 99 5.2 7.0 0.00 0.00 0.00 53 1017.5
20260507155005 74 86 5.2 6.1 0.00 0.00 0.00 53 1017.6
20260507154505 74 100 5.2 7.0 0.00 0.00 0.00 53 1017.5
20260507154007 74 110 5.2 7.0 0.00 0.00 0.00 54 1017.5
20260507153505 74 103 5.2 6.1 0.00 0.00 0.00 55 1017.5
20260507153005 74 117 5.2 7.8 0.00 0.00 0.00 55 1017.4
20260507151505 74 80 6.1 7.0 0.00 0.00 0.00 54 1017.5
20260507150006 75 118 5.2 7.8 0.00 0.00 0.00 50 1017.6
20260507145005 75 99 7.0 8.7 0.00 0.00 0.00 48 1017.6
20260507144505 75 95 7.0 8.7 0.00 0.00 0.00 47 1017.4
20260507144015 76 105 6.1 7.8 0.00 0.00 0.00 47 1017.5
20260507143505 76 112 7.0 7.8 0.00 0.00 0.00 45 1017.4
20260507143005 76 112 7.0 9.6 0.00 0.00 0.00 45 1017.3
20260507142005 77 85 6.1 7.8 0.00 0.00 0.00 45 1017.6
20260507135506 78 128 5.2 7.8 0.00 0.00 0.00 43 1017.6
20260507135005 78 157 6.1 8.7 0.00 0.00 0.00 42 1017.5
20260507134505 78 171 6.1 8.7 0.00 0.00 0.00 40 1017.5
20260507134019 79 83 5.2 7.0 0.00 0.00 0.00 39 1017.4
20260507133505 79 112 5.2 6.1 0.00 0.00 0.00 38 1017.5
20260507133006 80 154 5.2 6.1 0.00 0.00 0.00 37 1017.5
20260507132505 80 141 4.3 6.1 0.00 0.00 0.00 36 1017.3
20260507131006 80 109 4.3 6.1 0.00 0.00 0.00 36 1017.4
20260507130505 80 134 4.3 6.1 0.00 0.00 0.00 36 1017.5
20260507130005 80 148 4.3 6.1 0.00 0.00 0.00 36 1017.5
20260507125006 80 113 3.5 4.3 0.00 0.00 0.00 36 1017.3
20260507124505 80 111 4.3 7.0 0.00 0.00 0.00 35 1017.6
20260507124005 79 104 6.1 7.8 0.00 0.00 0.00 35 1017.5
20260507123506 79 82 6.1 7.8 0.00 0.00 0.00 32 1017.7
20260507123005 79 90 4.3 7.8 0.00 0.00 0.00 31 1017.8
20260507122006 79 135 3.5 6.1 0.00 0.00 0.00 33 1017.8
20260507121505 79 107 3.5 6.1 0.00 0.00 0.00 35 1018.0
20260507121005 78 135 4.3 5.2 0.00 0.00 0.00 36 1017.9
20260507120505 77 100 3.5 5.2 0.00 0.00 0.00 36 1018.1
20260507120006 77 95 3.5 4.3 0.00 0.00 0.00 39 1017.9
20260507115505 76 86 4.3 5.2 0.00 0.00 0.00 40 1017.9
20260507114506 76 93 3.5 5.2 0.00 0.00 0.00 42 1018.1
20260507114005 76 94 3.5 5.2 0.00 0.00 0.00 42 1018.1
20260507113505 76 80 2.6 4.3 0.00 0.00 0.00 44 1018.2
20260507113006 76 104 4.3 6.1 0.00 0.00 0.00 44 1018.2
20260507112505 76 117 4.3 6.1 0.00 0.00 0.00 44 1018.1
20260507112005 76 122 3.5 6.1 0.00 0.00 0.00 45 1017.9
20260507111519 76 134 5.2 6.1 0.00 0.00 0.00 45 1018.1
20260507111005 76 126 5.2 6.1 0.00 0.00 0.00 45 1018.3
20260507110505 76 95 5.2 6.1 0.00 0.00 0.00 45 1018.2
20260507110006 77 90 3.5 6.1 0.00 0.00 0.00 44 1018.4
20260507105505 78 113 2.6 6.1 0.00 0.00 0.00 42 1018.2
20260507105005 77 138 2.6 2.6 0.00 0.00 0.00 42 1018.4
20260507104509 77 160 2.6 4.3 0.00 0.00 0.00 42 1018.5
20260507104005 77 157 2.6 4.3 0.00 0.00 0.00 42 1018.5
20260507103505 77 161 2.6 5.2 0.00 0.00 0.00 42 1018.3
20260507103006 76 139 2.6 5.2 0.00 0.00 0.00 41 1018.2
20260507102505 76 99 1.7 4.3 0.00 0.00 0.00 41 1018.3
20260507101507 76 205 3.5 4.3 0.00 0.00 0.00 38 1018.2
20260507101005 77 190 2.6 4.3 0.00 0.00 0.00 38 1018.0
20260507100509 77 174 2.6 3.5 0.00 0.00 0.00 39 1018.0
20260507100005 77 162 2.6 3.5 0.00 0.00 0.00 40 1018.1
20260507095505 76 149 2.6 3.5 0.00 0.00 0.00 41 1018.0
20260507094505 75 191 2.6 3.5 0.00 0.00 0.00 45 1018.0
20260507094005 74 213 3.5 4.3 0.00 0.00 0.00 45 1018.0
20260507093506 75 199 2.6 4.3 0.00 0.00 0.00 43 1017.8
20260507093009 74 202 1.7 2.6 0.00 0.00 0.00 45 1018.1
20260507092505 73 209 3.5 5.2 0.00 0.00 0.00 45 1018.2
20260507091506 72 233 3.5 4.3 0.00 0.00 0.00 49 1018.3
20260507091006 72 226 3.5 4.3 0.00 0.00 0.00 48 1018.0
20260507090505 72 214 3.5 4.3 0.00 0.00 0.00 48 1018.3
20260507090006 72 218 2.6 4.3 0.00 0.00 0.00 47 1018.2
20260507085506 72 238 3.5 4.3 0.00 0.00 0.00 47 1018.1
20260507085008 72 247 2.6 4.3 0.00 0.00 0.00 47 1018.0
20260507084005 71 228 2.6 4.3 0.00 0.00 0.00 47 1018.1
20260507083506 71 214 2.6 4.3 0.00 0.00 0.00 47 1017.8
20260507083006 72 208 2.6 4.3 0.00 0.00 0.00 47 1017.9
20260507082505 72 178 2.6 3.5 0.00 0.00 0.00 46 1017.8
20260507082005 72 157 2.6 3.5 0.00 0.00 0.00 46 1018.0
20260507081505 72 166 2.6 3.5 0.00 0.00 0.00 46 1017.9
20260507081019 72 177 2.6 3.5 0.00 0.00 0.00 43 1017.8
20260507080005 72 149 1.7 2.6 0.00 0.00 0.00 47 1018.0
20260507075005 70 197 2.6 2.6 0.00 0.00 0.00 48 1018.1
20260507074505 69 200 1.7 2.6 0.00 0.00 0.00 48 1017.9
20260507074005 69 173 2.6 4.3 0.00 0.00 0.00 49 1017.8
20260507073506 69 188 3.5 5.2 0.00 0.00 0.00 49 1017.9
20260507072505 69 207 2.6 3.5 0.00 0.00 0.00 50 1017.8
20260507072006 69 207 2.6 3.5 0.00 0.00 0.00 51 1017.9
20260507071506 69 178 2.6 2.6 0.00 0.00 0.00 51 1017.8
20260507071006 69 164 1.7 2.6 0.00 0.00 0.00 52 1018.0
20260507070505 69 181 1.7 2.6 0.00 0.00 0.00 54 1017.7
20260507065505 66 211 3.5 4.3 0.00 0.00 0.00 57 1017.8
20260507065006 65 199 3.5 4.3 0.00 0.00 0.00 57 1017.9
20260507064005 65 191 1.7 3.5 0.00 0.00 0.00 58 1018.1
20260507063006 64 189 2.6 3.5 0.00 0.00 0.00 61 1018.2
20260507062505 63 197 2.6 2.6 0.00 0.00 0.00 66 1018.3
20260507061505 63 208 3.5 4.3 0.00 0.00 0.00 66 1018.1
20260507061005 63 206 3.5 4.3 0.00 0.00 0.00 66 1018.1
20260507060507 63 201 3.5 4.3 0.00 0.00 0.00 66 1018.2
20260507060005 63 204 3.5 4.3 0.00 0.00 0.00 66 1018.1
20260507054006 63 211 3.5 3.5 0.00 0.00 0.00 66 1017.9
20260507053505 63 220 2.6 2.6 0.00 0.00 0.00 66 1017.9
20260507053005 64 199 1.7 2.6 0.00 0.00 0.00 63 1017.5
20260507052005 64 103 0.9 1.7 0.00 0.00 0.00 64 1017.6
20260507051507 64 168 1.7 2.6 0.00 0.00 0.00 63 1017.5
20260507050505 64 176 1.7 2.6 0.00 0.00 0.00 59 1017.4
20260507050005 65 224 0.9 1.7 0.00 0.00 0.00 58 1017.3
20260507045505 65 228 1.7 1.7 0.00 0.00 0.00 58 1017.2
20260507045005 64 217 0.9 1.7 0.00 0.00 0.00 57 1017.2
20260507044005 63 51 0.9 0.9 0.00 0.00 0.00 61 1016.8
20260507043505 63 102 0.9 0.9 0.00 0.00 0.00 58 1016.9
20260507043006 62 77 0.9 1.7 0.00 0.00 0.00 58 1017.0
20260507042505 62 59 0.9 1.7 0.00 0.00 0.00 57 1017.0
20260507042005 62 80 0.9 1.7 0.00 0.00 0.00 57 1016.8
20260507041506 62 227 0.9 2.6 0.00 0.00 0.00 57 1017.1
20260507041005 62 208 0.9 2.6 0.00 0.00 0.00 57 1017.0
20260507040006 62 45 0.9 0.9 0.00 0.00 0.00 58 1017.0
20260507034505 62 10 0.9 1.7 0.00 0.00 0.00 59 1016.8
20260507033505 62 270 1.7 2.6 0.00 0.00 0.00 58 1017.0
20260507033005 62 287 0.9 2.6 0.00 0.00 0.00 61 1016.8
20260507031506 61 52 1.7 1.7 0.00 0.00 0.00 61 1016.9
20260507031005 60 59 0.9 1.7 0.00 0.00 0.00 61 1016.8
20260507030505 60 72 0.9 1.7 0.00 0.00 0.00 63 1016.8
20260507025505 60 145 0.9 0.9 0.00 0.00 0.00 62 1016.7
20260507024505 61 281 0.9 1.7 0.00 0.00 0.00 64 1016.7
20260507024008 62 3 0.9 1.7 0.00 0.00 0.00 62 1016.5
20260507023506 63 54 1.7 2.6 0.00 0.00 0.00 60 1016.6
20260507023005 63 74 1.7 2.6 0.00 0.00 0.00 56 1016.5
20260507022006 63 45 0.9 0.9 0.00 0.00 0.00 53 1016.5
20260507021505 63 63 0.9 0.9 0.00 0.00 0.00 55 1016.3
20260507021008 63 126 0.9 0.9 0.00 0.00 0.00 56 1016.3
20260507015506 63 46 0.9 1.7 0.00 0.00 0.00 56 1016.3
20260507015005 63 18 0.9 1.7 0.00 0.00 0.00 55 1016.4
20260507014505 63 27 0.9 1.7 0.00 0.00 0.00 54 1016.3
20260507013505 64 50 0.9 1.7 0.00 0.00 0.00 54 1016.3
20260507013005 64 66 0.9 1.7 0.00 0.00 0.00 56 1016.3
20260507012505 64 185 1.7 2.6 0.00 0.00 0.00 55 1016.4
20260507011505 64 200 0.9 2.6 0.00 0.00 0.00 48 1016.0
20260507011005 64 58 1.7 2.6 0.00 0.00 0.00 47 1016.1
20260507010505 64 332 2.6 2.6 0.00 0.00 0.00 47 1016.2
20260507010006 64 284 3.5 4.3 0.00 0.00 0.00 47 1016.2
20260507005505 64 269 2.6 4.3 0.00 0.00 0.00 47 1016.2
20260507005005 64 234 1.7 2.6 0.00 0.00 0.00 48 1016.1
20260507004006 64 223 0.9 2.6 0.00 0.00 0.00 52 1016.0
20260507003505 64 225 0.0 0.9 0.00 0.00 0.00 55 1016.0
20260507003005 64 323 0.0 0.9 0.00 0.00 0.00 56 1016.1
20260507001505 64 223 0.9 0.9 0.00 0.00 0.00 59 1016.3
20260507000505 64 267 0.9 1.7 0.00 0.00 0.00 59 1016.2
20260507000005 64 79 1.7 2.6 0.00 0.00 0.00 59 1016.3
20260506235505 65 66 1.7 3.5 0.00 0.00 0.00 57 1016.3
20260506235005 66 101 1.7 3.5 0.00 0.00 0.00 53 1016.2
20260506234514 66 205 2.6 6.1 0.00 0.00 0.00 49 1016.3
20260506233505 67 215 3.5 5.2 0.00 0.00 0.00 48 1016.3
20260506233006 67 289 3.5 7.0 0.00 0.00 0.00 47 1016.5
20260506232005 66 314 3.5 5.2 0.00 0.00 0.00 48 1016.5
20260506231506 66 315 2.6 5.2 0.00 0.00 0.00 49 1016.7
20260506231005 66 314 0.9 2.6 0.00 0.00 0.00 52 1016.8
20260506230505 66 296 1.7 2.6 0.00 0.00 0.00 53 1016.9
20260506230005 66 285 1.7 2.6 0.00 0.00 0.00 53 1017.1
20260506225505 66 282 1.7 2.6 0.00 0.00 0.00 53 1016.9
20260506225005 66 302 1.7 2.6 0.00 0.00 0.00 55 1017.2
20260506224505 66 308 0.9 1.7 0.00 0.00 0.00 55 1017.1
20260506224005 66 270 0.9 1.7 0.00 0.00 0.00 57 1017.0
20260506223505 66 270 0.0 0.9 0.00 0.00 0.00 58 1017.1
20260506223005 66 0 0.0 0.0 0.00 0.00 0.00 58 1016.9
20260506222505 66 225 0.0 0.9 0.00 0.00 0.00 59 1016.9
20260506222005 66 344 0.9 1.7 0.00 0.00 0.00 60 1017.3
20260506221010 67 210 1.7 2.6 0.00 0.00 0.00 59 1017.1
20260506220505 67 235 2.6 3.5 0.00 0.00 0.00 57 1017.1
20260506215006 68 306 2.6 5.2 0.00 0.00 0.00 55 1017.1
20260506214505 68 294 2.6 2.6 0.00 0.00 0.00 54 1017.0
20260506214005 68 303 2.6 3.5 0.00 0.00 0.00 54 1017.0
20260506213505 68 297 1.7 3.5 0.00 0.00 0.00 54 1016.9
20260506211506 68 259 1.7 2.6 0.00 0.00 0.00 54 1017.0
20260506211005 68 236 1.7 2.6 0.00 0.00 0.00 53 1017.0
20260506210505 69 245 1.7 2.6 0.00 0.00 0.00 53 1017.0
20260506210006 69 264 1.7 2.6 0.00 0.00 0.00 52 1017.0
20260506205505 69 296 2.6 5.2 0.00 0.00 0.00 52 1017.0
20260506205005 69 321 3.5 5.2 0.00 0.00 0.00 52 1017.1
20260506204506 69 317 2.6 5.2 0.00 0.00 0.00 52 1016.9
20260506204005 69 298 2.6 4.3 0.00 0.00 0.00 52 1017.0
20260506203505 69 301 2.6 4.3 0.00 0.00 0.00 53 1016.9
20260506202505 69 307 2.6 2.6 0.00 0.00 0.00 52 1016.9
20260506202005 69 333 1.7 2.6 0.00 0.00 0.00 56 1017.1
20260506201507 69 30 0.9 1.7 0.00 0.00 0.00 59 1017.0
20260506200008 69 220 0.0 0.9 0.00 0.00 0.00 65 1016.7
20260506195505 69 145 0.9 0.9 0.00 0.00 0.00 65 1016.7
20260506195005 69 74 0.9 1.7 0.00 0.00 0.00 65 1016.5
20260506194505 69 63 1.7 2.6 0.00 0.00 0.00 64 1016.6
20260506194005 69 44 1.7 2.6 0.00 0.00 0.00 62 1016.7
20260506193508 69 54 1.7 2.6 0.00 0.00 0.00 59 1016.8
20260506193006 70 61 1.7 2.6 0.00 0.00 0.00 57 1016.8
20260506192006 70 220 0.9 2.6 0.00 0.00 0.00 57 1016.8
20260506191505 70 251 1.7 2.6 0.00 0.00 0.00 58 1016.6
20260506191005 70 271 1.7 2.6 0.00 0.00 0.00 59 1016.7
20260506190505 70 243 0.9 1.7 0.00 0.00 0.00 60 1016.5
20260506185505 70 10 0.9 2.6 0.00 0.00 0.00 62 1016.3
20260506185005 70 20 1.7 2.6 0.00 0.00 0.00 59 1016.3
20260506184511 70 31 1.7 2.6 0.00 0.00 0.00 59 1016.1
20260506184005 71 190 1.7 1.7 0.00 0.00 0.00 61 1016.1
20260506183505 71 200 0.9 1.7 0.00 0.00 0.00 63 1015.9
20260506183005 71 210 0.9 1.7 0.00 0.00 0.00 61 1015.8
20260506182509 70 32 0.9 1.7 0.00 0.00 0.00 62 1015.8
20260506182005 70 38 1.7 1.7 0.00 0.00 0.00 63 1015.7
20260506181505 70 355 0.9 1.7 0.00 0.00 0.00 66 1015.5
20260506180506 70 93 0.9 1.7 0.00 0.00 0.00 66 1015.4
20260506175510 70 78 2.6 3.5 0.00 0.00 0.00 66 1015.4
20260506174505 71 137 1.7 2.6 0.00 0.00 0.00 65 1015.4
20260506173505 71 101 2.6 2.6 0.00 0.00 0.00 63 1015.2
20260506173005 72 130 2.6 4.3 0.00 0.00 0.00 62 1015.1
20260506172505 72 131 2.6 4.3 0.00 0.00 0.00 61 1015.3
20260506172005 72 125 2.6 4.3 0.00 0.00 0.00 57 1015.1
20260506171505 73 103 1.7 2.6 0.00 0.00 0.00 57 1015.0
20260506171005 73 92 1.7 2.6 0.00 0.00 0.00 57 1014.9
20260506170506 74 119 1.7 2.6 0.00 0.00 0.00 56 1014.8
20260506170005 74 133 1.7 2.6 0.00 0.00 0.00 55 1014.8
20260506165508 74 124 2.6 2.6 0.00 0.00 0.00 52 1014.8
20260506165005 75 122 1.7 2.6 0.00 0.00 0.00 51 1014.7
20260506164505 75 86 1.7 2.6 0.00 0.00 0.00 49 1014.9
20260506164005 76 111 1.7 3.5 0.00 0.00 0.00 49 1014.9
20260506163505 76 111 2.6 3.5 0.00 0.00 0.00 49 1014.7
20260506162505 76 137 3.5 4.3 0.00 0.00 0.00 48 1014.9
20260506161505 76 116 3.5 4.3 0.00 0.00 0.00 47 1014.6
20260506161005 77 113 4.3 4.3 0.00 0.00 0.00 47 1014.7